This demonstration page uses our WeatherBlox Daily Observations layout. Learn more.

Left ArrowRight Arrow

Hourly Observations for November 14, 2018

Temp ( °F °C ) Dew Point ( °F °C ) Humidity (%) Winds ( mph kmh ) Pressure ( in mb ) Visibility ( mi km ) Precip ( " mm )
12:53 am 00:53 Clear 26 -3.3 21 -6.1 81 81 NW 6 9 30.51 1033 9 14 N/A
1:53 am 01:53 Clear 25 -3.9 21 -6.1 85 85 NNW 6 9 30.52 1033 8 13 N/A
2:53 am 02:53 Clear 24 -4.4 20 -6.7 84 84 N N/A 30.53 1034 8 13 N/A
3:53 am 03:53 Clear 22 -5.6 18 -7.8 85 85 N N/A 30.53 1034 9 14 N/A
4:53 am 04:53 Clear 22 -5.6 17 -8.3 82 82 N N/A 30.54 1034 7 11 N/A
5:53 am 05:53 Clear 21 -6.1 17 -8.3 85 85 N N/A 30.55 1035 7 11 N/A
6:53 am 06:53 Clear 21 -6.1 17 -8.3 85 85 N N/A 30.56 1035 7 11 N/A
7:53 am 07:53 Sunny with Mist and Fog 22 -5.6 18 -7.8 85 85 N N/A 30.58 1035 6 10 N/A
8:53 am 08:53 Sunny 25 -3.9 20 -6.7 81 81 E 3 6 30.59 1036 9 14 N/A
9:53 am 09:53 Sunny 28 -2.2 19 -7.2 69 69 ENE 7 11 30.62 1037 10 16 N/A
10:53 am 10:53 Sunny 29 -1.7 19 -7.2 66 66 ENE 10 17 30.62 1037 10 16 N/A
11:53 am 11:53 Sunny 30 -1.1 19 -7.2 64 64 NE 12 19 30.60 1036 10 16 N/A
12:53 pm 12:53 Sunny 32 undefined 20 -6.7 61 61 ENE 10 17 30.57 1035 10 16 N/A
1:53 pm 13:53 Sunny 32 undefined 19 -7.2 59 59 ENE 12 19 30.54 1034 10 16 N/A
2:53 pm 14:53 Sunny 32 undefined 19 -7.2 59 59 ENE 12 19 30.50 1033 10 16 N/A
3:53 pm 15:53 Sunny 32 undefined 18 -7.8 56 56 ENE 10 17 30.50 1033 10 16 N/A
4:53 pm 16:53 Sunny 32 undefined 18 -7.8 56 56 ENE 9 15 30.48 1032 10 16 N/A
5:53 pm 17:53 Clear 31 -0.6 19 -7.2 61 61 ENE 10 17 30.45 1031 10 16 N/A
6:53 pm 18:53 Clear 31 -0.6 19 -7.2 61 61 ENE 10 17 30.45 1031 10 16 N/A
7:53 pm 19:53 Clear 31 -0.6 20 -6.7 64 64 ENE 12 19 30.43 1031 10 16 N/A
8:53 pm 20:53 Cloudy 32 undefined 20 -6.7 61 61 E 10 17 30.42 1030 10 16 N/A
9:53 pm 21:53 Cloudy with Light Wintry Mix 31 -0.6 22 -5.6 69 69 ENE 9 15 30.39 1029 9 14 0.01 0.25
10:16 pm 22:16 Cloudy with Light Freezing Rain 31 -0.6 23 -5 72 72 NE 8 13 30.39 1029 9 14 0.01 0.25
10:49 pm 22:49 Cloudy with Freezing Rain 30 -1 25 -4 80 80 NE 8 13 30.36 1028 7 11 0.03 0.76
10:53 pm 22:53 Cloudy with Freezing Rain 31 -0.6 25 -3.9 79 79 ENE 9 15 30.36 1028 7 11 0.04 1.02
11:04 pm 23:04 Cloudy with Light Freezing Rain 31 -0.6 25 -3.9 79 79 ENE 9 15 30.36 1028 8 13 N/A
11:43 pm 23:43 Cloudy with Light Wintry Mix 31 -0.6 25 -3.9 79 79 ENE 10 17 30.33 1027 8 13 0.02 0.51
11:50 pm 23:50 Cloudy with Light Freezing Rain 30 -1 25 -4 80 80 ENE 10 17 30.36 1028 8 13 0.02 0.51
11:53 pm 23:53 Cloudy with Light Freezing Rain 31 -0.6 25 -3.9 79 79 ENE 12 19 30.34 1027 8 13 0.02 0.51

Powered by AerisWeather